Regional Weather Roundup
Issued by NWS

Home | Current Version | Previous Version | Text Only | Print | Product List | Glossary On
Versions: 1 2 3 4 5 6 7 8 9 10 11 12 13 14 15 16 17 18 19 20 21 22 23 24 25 26 27 28 29 30 31 32 33 34 35 36 37 38 39 40 41 42 43 44 45 46 47 48 49 50
000
ASUS45 KBOU 030310
RWRCO

WEATHER ROUNDUP FOR COLORADO
NATIONAL WEATHER SERVICE DENVER/BOULDER CO
900 PM MDT THU JUL 02 2015

NOTE: "FAIR" INDICATES FEW OR NO CLOUDS BELOW 12000 FEET WITH NO
SIGNIFICANT WEATHER AND/OR OBSTRUCTIONS TO VISIBILITY.

COZ001>005-013-030-031-030400-
...NORTHWEST COLORADO...

CITY           SKY/WX    TMP DP  RH WIND       PRES   REMARKS
CRAIG          MOCLDY    78  44  29 N9G18     30.15R
HAYDEN         PTCLDY    73  39  29 E7        30.18R
MEEKER         PTCLDY    75  48  38 E8        30.13S
MOUNT WERNER   NOT AVBL
STEAMBOAT SPGS PTCLDY    74  46  36 CALM      30.22R
WALDEN         MOCLDY    63  41  45 NE7       30.35R
$$

COZ006>008-011-030400-
...WEST CENTRAL VALLEYS...

CITY           SKY/WX    TMP DP  RH WIND       PRES   REMARKS
GRAND JUNCTION PTCLDY    87  46  24 CALM      29.96S
MONTROSE       PTCLDY    82  51  34 S5        30.08R
EAGLE          PTCLDY    77  43  29 CALM      30.17R
RIFLE          CLEAR     86  38  18 CALM      30.03S
DELTA          PTCLDY    85  47  26 N8        30.02R
NUCLA          PTCLDY    82  43  24 CALM      30.12R
$$

COZ017>023-064>068-030400-
...SOUTHWEST COLORADO...

CITY           SKY/WX    TMP DP  RH WIND       PRES   REMARKS
DURANGO        CLOUDY    70  50  49 CALM      30.21R
CORTEZ         PTCLDY    71  57  61 E5        30.11R
PAGOSA SPRINGS CLOUDY    67  47  47 E7        30.30R
TELLURIDE      MOCLDY    66  49  53 CALM      30.40S
WOLF CREEK PAS NOT AVBL
$$

COZ009-010-012-014-032>034-037-058>063-030400-
...CENTRAL COLORADO...

CITY           SKY/WX    TMP DP  RH WIND       PRES   REMARKS
ASPEN          PTCLDY    63  48  58 N6        30.27R
BUENA VISTA    MOCLDY    61  53  74 CALM      30.37F
COPPER MTN     CLOUDY    54  43  66 S14G20    30.64S
BERTHOUD PASS  FAIR      41  32  70 E22       30.68S
COTTONWOOD PAS NOT AVBL
GUNNISON       MOCLDY    64  46  52 E14       30.32R
KREMMLING      PTCLDY    72  36  26 E5        30.27R
LEADVILLE      PTCLDY    51  50  96 SW6       30.49R
MONARCH PASS   CLOUDY    45  43  93 NE16      30.72S
SALIDA         MOCLDY    62  57  86 CALM      30.42R
SUNLIGHT       PTCLDY    63  34  34 N5        30.55S
WILKERSON PASS PTCLDY    50  34  53 CALM      30.62S
$$

COZ069>075-030400-
...SAN LUIS VALLEY/SANGRE DE CRISTO MOUNTAINS...

CITY           SKY/WX    TMP DP  RH WIND       PRES   REMARKS
ALAMOSA        CLOUDY    58  52  80 SW6       30.33R
LA VETA PASS   CLOUDY    52  46  82 MISG      30.52R
SAGUACHE       LGT RAIN  59  52  77 N8        30.35R
$$

COZ035-036-038>040-030400-
...NORTHERN COLORADO FRONT RANGE...

CITY           SKY/WX    TMP DP  RH WIND       PRES   REMARKS
DENVER INTL AP CLOUDY    62  58  86 E7        30.20F
DMNS CITY PARK   N/A     63  60  91 E10G21    30.18F
AURORA         MOCLDY    61  60  96 E8        30.23R
FRONT RANGE AP TSTM      64  59  82 MISG      30.22R
ERIE MUNI ARPT CLOUDY    64  60  87 W6        30.20F
BOULDER MUN AP CLOUDY    63  61  94 N3        30.21F
CENTENNIAL     TSTM      61  58  90 NE10      30.24R FOG
BROOMFIELD     MOCLDY    63  59  88 CALM      30.23S
FORT COLLINS   MOCLDY    64  57  77 S6        30.20S
LONGMONT       MOCLDY    65  61  86 SW6       30.21S
$$

COZ041-046-047-076>085-087-088-030400-
...PIKES PEAK/PALMER DIVIDE AND SOUTHERN FOOTHILLS...

CITY           SKY/WX    TMP DP  RH WIND       PRES   REMARKS
COLO. SPRINGS  MOCLDY    67  57  70 S6        30.23S
A. F. ACADEMY  PTCLDY    65  57  75 SE3       30.24F
ELLICOTT       PTCLDY   N/A N/A N/A S5        30.22R
FALCON         PTCLDY    63  56  79 W3        30.28S
FORT CARSON    NOT AVBL
LIMON          MOCLDY    69  59  70 E7        30.18R
MONUMENT HILL  NOT AVBL
TRINIDAD       CLOUDY    69  57  65 CALM      30.21S
$$

COZ042>045-048>051-090-091-030400-
...NORTHEAST COLORADO...

CITY           SKY/WX    TMP DP  RH WIND       PRES   REMARKS
GREELEY ARPT   MOCLDY    64  61  88 CALM      30.17R
AKRON          PTCLDY    69  56  62 E5        30.15R
BURLINGTON     PTCLDY    70  55  59 NE5       30.11R
WRAY           CLEAR     72  57  60 NE5       30.09R
STERLING       PTCLDY    73  55  53 E3          N/A
HOLYOKE        CLEAR     72  59  64 E3        30.10R
FORT MORGAN    PTCLDY    66  56  70 SW5       30.15S THUNDER
$$

COZ086-089-092>099-030400-
...SOUTHEAST COLORADO...

CITY           SKY/WX    TMP DP  RH WIND       PRES   REMARKS
PUEBLO         MOCLDY    74  59  59 S3        30.13R
LA JUNTA       CLEAR     73  60  63 W9        30.09R
LAMAR          PTCLDY    75  60  59 CALM      30.04R
SPRINGFIELD      N/A     73  58  59 E7        30.11R
$$



USA.gov is the U.S. government's official web portal to all federal, state and local government web resources and services.